• In Österreich
  • Länderverzeichnis
  • Für 7 Tage
  • Wassertemperatur
  • Satellitenkarten
  • Wetterkarte
  • News
  • Widgets
  • user-avatar
    Anmelden

    Stündliche Wetter Escaldes-Engordany

    Heute, 20 Mai, Sonntag

    Zeit Temperatur Niederschläge Wind Luftdruck Luftfeuchtigkeit
    00:00 +7°C° 0 mm 1 m/S 638 mmHg 88%
    01:00 +7°C° 0 mm 1 m/S 638 mmHg 87%
    02:00 +7°C° 0 mm 1 m/S 638 mmHg 85%
    03:00 +6°C° 0 mm 1 m/S 638 mmHg 84%
    04:00 +7°C° 0 mm 1 m/S 638 mmHg 83%
    05:00 +8°C° 0 mm 1 m/S 638 mmHg 81%
    06:00 +9°C° 0 mm 1 m/S 639 mmHg 77%
    07:00 +11°C° 0 mm 1 m/S 639 mmHg 70%
    08:00 +13°C° 0 mm 1 m/S 640 mmHg 63%
    09:00 +15°C° 0 mm 1 m/S 640 mmHg 57%
    10:00 +15°C° 0,3 mm 1 m/S 640 mmHg 57%
    11:00 +15°C° 0,3 mm 1 m/S 640 mmHg 58%
    12:00 +15°C° 0,3 mm 2 m/S 640 mmHg 59%
    13:00 +14°C° 1,2 mm 1 m/S 639 mmHg 65%
    14:00 +13°C° 1,2 mm 1 m/S 639 mmHg 72%
    15:00 +12°C° 1,2 mm 1 m/S 638 mmHg 78%
    16:00 +12°C° 2 mm 1 m/S 638 mmHg 82%
    17:00 +11°C° 2 mm 1 m/S 638 mmHg 86%
    18:00 +9°C° 2 mm 0 m/S 637 mmHg 89%
    19:00 +10°C° 1,1 mm 1 m/S 637 mmHg 90%
    20:00 +9°C° 1,1 mm 1 m/S 637 mmHg 91%
    21:00 +8°C° 1,1 mm 1 m/S 637 mmHg 92%
    22:00 +8°C° 0,3 mm 1 m/S 637 mmHg 91%
    23:00 +8°C° 0,3 mm 1 m/S 637 mmHg 91%

    Morgen, 21 Mai, Montag

    Zeit Temperatur Niederschläge Wind Luftdruck Luftfeuchtigkeit
    00:00 +8°C° 0,3 mm 1 m/S 636 mmHg 90%
    01:00 +7°C° 0,1 mm 1 m/S 636 mmHg 90%
    02:00 +7°C° 0,1 mm 1 m/S 636 mmHg 90%
    03:00 +7°C° 0,1 mm 1 m/S 635 mmHg 89%
    04:00 +7°C° 0,1 mm 1 m/S 636 mmHg 88%
    05:00 +8°C° 0,1 mm 1 m/S 636 mmHg 86%
    06:00 +8°C° 0,1 mm 1 m/S 636 mmHg 85%
    07:00 +10°C° 0,2 mm 1 m/S 637 mmHg 79%
    08:00 +11°C° 0,2 mm 1 m/S 637 mmHg 74%
    09:00 +12°C° 0,2 mm 1 m/S 638 mmHg 68%
    10:00 +13°C° 0,4 mm 1 m/S 638 mmHg 66%
    11:00 +14°C° 0,4 mm 1 m/S 638 mmHg 63%
    12:00 +15°C° 0,4 mm 1 m/S 638 mmHg 61%
    13:00 +15°C° 0,7 mm 2 m/S 638 mmHg 62%
    14:00 +15°C° 0,7 mm 2 m/S 638 mmHg 64%
    15:00 +14°C° 0,7 mm 2 m/S 637 mmHg 65%
    16:00 +14°C° 0,6 mm 1 m/S 637 mmHg 70%
    17:00 +13°C° 0,6 mm 1 m/S 637 mmHg 75%
    18:00 +12°C° 0,6 mm 1 m/S 637 mmHg 80%
    19:00 +11°C° 0,2 mm 1 m/S 637 mmHg 83%
    20:00 +10°C° 0,2 mm 1 m/S 637 mmHg 86%
    21:00 +9°C° 0,2 mm 1 m/S 637 mmHg 89%
    22:00 +9°C° 0,2 mm 1 m/S 636 mmHg 89%
    23:00 +8°C° 0,2 mm 1 m/S 636 mmHg 89%

    übermorgen, 22 Mai, Dienstag

    Zeit Temperatur Niederschläge Wind Luftdruck Luftfeuchtigkeit
    00:00 +8°C° 0,2 mm 1 m/S 636 mmHg 89%
    01:00 +8°C° 0,3 mm 1 m/S 636 mmHg 89%
    02:00 +8°C° 0,3 mm 1 m/S 636 mmHg 89%
    03:00 +8°C° 0,3 mm 1 m/S 636 mmHg 88%
    04:00 +9°C° 0,2 mm 1 m/S 637 mmHg 87%
    05:00 +8°C° 0,2 mm 0 m/S 637 mmHg 85%
    06:00 +9°C° 0,2 mm 0 m/S 637 mmHg 83%
    07:00 +10°C° 0,3 mm 0 m/S 638 mmHg 78%
    08:00 +11°C° 0,3 mm 0 m/S 639 mmHg 73%
    09:00 +13°C° 0,3 mm 1 m/S 639 mmHg 69%
    10:00 +14°C° 0,5 mm 1 m/S 639 mmHg 66%
    11:00 +15°C° 0,5 mm 1 m/S 640 mmHg 64%
    12:00 +16°C° 0,5 mm 1 m/S 640 mmHg 62%
    13:00 +16°C° 0,7 mm 1 m/S 640 mmHg 62%
    14:00 +16°C° 0,7 mm 1 m/S 640 mmHg 63%
    15:00 +16°C° 0,7 mm 1 m/S 640 mmHg 64%
    16:00 +15°C° 0,7 mm 1 m/S 640 mmHg 69%
    17:00 +14°C° 0,7 mm 1 m/S 639 mmHg 73%
    18:00 +13°C° 0,7 mm 1 m/S 639 mmHg 78%
    19:00 +12°C° 0,1 mm 1 m/S 639 mmHg 82%
    20:00 +10°C° 0,1 mm 1 m/S 639 mmHg 86%
    21:00 +9°C° 0,1 mm 1 m/S 639 mmHg 90%
    22:00 +9°C° 0 mm 1 m/S 639 mmHg 90%
    23:00 +8°C° 0 mm 1 m/S 639 mmHg 89%

    23 Mai, Mittwoch

    Zeit Temperatur Niederschläge Wind Luftdruck Luftfeuchtigkeit
    00:00 +8°C° 0 mm 1 m/S 639 mmHg 89%
    01:00 +8°C° 0 mm 1 m/S 639 mmHg 88%
    02:00 +7°C° 0 mm 1 m/S 639 mmHg 87%
    03:00 +7°C° 0 mm 1 m/S 639 mmHg 86%
    04:00 +8°C° 0 mm 1 m/S 639 mmHg 84%
    05:00 +9°C° 0 mm 1 m/S 640 mmHg 82%
    06:00 +10°C° 0 mm 1 m/S 640 mmHg 80%
    07:00 +12°C° 0 mm 1 m/S 641 mmHg 73%
    08:00 +14°C° 0 mm 1 m/S 642 mmHg 66%
    09:00 +16°C° 0 mm 1 m/S 643 mmHg 59%
    10:00 +16°C° 0 mm 1 m/S 643 mmHg 59%
    11:00 +17°C° 0 mm 2 m/S 643 mmHg 59%
    12:00 +17°C° 0 mm 2 m/S 643 mmHg 59%
    13:00 +17°C° 0,2 mm 2 m/S 642 mmHg 60%
    14:00 +17°C° 0,2 mm 2 m/S 642 mmHg 60%
    15:00 +17°C° 0,2 mm 2 m/S 642 mmHg 61%
    16:00 +18°C° 0,3 mm 1 m/S 642 mmHg 66%
    17:00 +16°C° 0,3 mm 1 m/S 641 mmHg 71%
    18:00 +15°C° 0,3 mm 1 m/S 641 mmHg 76%
    19:00 +14°C° 0,1 mm 1 m/S 641 mmHg 80%
    20:00 +12°C° 0,1 mm 1 m/S 641 mmHg 84%
    21:00 +11°C° 0,1 mm 1 m/S 641 mmHg 88%
    22:00 +11°C° 0,1 mm 1 m/S 640 mmHg 89%
    23:00 +10°C° 0,1 mm 1 m/S 640 mmHg 89%

    24 Mai, Donnerstag

    Zeit Temperatur Niederschläge Wind Luftdruck Luftfeuchtigkeit
    00:00 +10°C° 0,1 mm 1 m/S 640 mmHg 89%
    01:00 +10°C° 0 mm 1 m/S 640 mmHg 88%
    02:00 +10°C° 0 mm 1 m/S 639 mmHg 88%
    03:00 +10°C° 0 mm 1 m/S 639 mmHg 87%
    04:00 +11°C° 0 mm 1 m/S 639 mmHg 85%
    05:00 +12°C° 0 mm 1 m/S 640 mmHg 82%
    06:00 +13°C° 0 mm 1 m/S 640 mmHg 79%
    07:00 +15°C° 0 mm 1 m/S 641 mmHg 71%
    08:00 +18°C° 0 mm 1 m/S 642 mmHg 63%
    09:00 +19°C° 0 mm 2 m/S 642 mmHg 55%
    10:00 +19°C° 0,2 mm 2 m/S 642 mmHg 54%
    11:00 +20°C° 0,2 mm 2 m/S 642 mmHg 52%
    12:00 +20°C° 0,2 mm 3 m/S 642 mmHg 51%
    13:00 +21°C° 0,3 mm 3 m/S 642 mmHg 51%
    14:00 +21°C° 0,3 mm 3 m/S 642 mmHg 50%
    15:00 +21°C° 0,3 mm 3 m/S 642 mmHg 50%
    16:00 +20°C° 0,2 mm 2 m/S 641 mmHg 56%
    17:00 +18°C° 0,2 mm 2 m/S 641 mmHg 61%
    18:00 +17°C° 0,2 mm 2 m/S 641 mmHg 67%
    19:00 +16°C° 0,1 mm 2 m/S 640 mmHg 71%
    20:00 +14°C° 0,1 mm 1 m/S 640 mmHg 76%
    21:00 +12°C° 0,1 mm 1 m/S 640 mmHg 80%
    22:00 +12°C° 0 mm 1 m/S 639 mmHg 78%
    23:00 +11°C° 0 mm 1 m/S 639 mmHg 76%

    25 Mai, Freitag

    Zeit Temperatur Niederschläge Wind Luftdruck Luftfeuchtigkeit
    00:00 +11°C° 0 mm 1 m/S 639 mmHg 74%
    01:00 +11°C° 0 mm 1 m/S 639 mmHg 70%
    02:00 +11°C° 0 mm 1 m/S 638 mmHg 67%
    03:00 +10°C° 0 mm 1 m/S 638 mmHg 64%
    04:00 +11°C° 0 mm 1 m/S 639 mmHg 63%
    05:00 +12°C° 0 mm 1 m/S 639 mmHg 62%
    06:00 +13°C° 0 mm 1 m/S 639 mmHg 61%
    07:00 +16°C° 0 mm 2 m/S 640 mmHg 54%
    08:00 +18°C° 0 mm 2 m/S 641 mmHg 47%
    09:00 +21°C° 0 mm 2 m/S 642 mmHg 40%
    10:00 +21°C° 0 mm 3 m/S 642 mmHg 40%
    11:00 +21°C° 0 mm 3 m/S 642 mmHg 40%
    12:00 +22°C° 0 mm 3 m/S 642 mmHg 40%
    13:00 +22°C° 0 mm 3 m/S 642 mmHg 41%
    14:00 +22°C° 0 mm 3 m/S 642 mmHg 42%
    15:00 +22°C° 0 mm 3 m/S 642 mmHg 43%
    16:00 +21°C° 0 mm 3 m/S 641 mmHg 48%
    17:00 +20°C° 0 mm 3 m/S 641 mmHg 54%
    18:00 +19°C° 0 mm 2 m/S 640 mmHg 59%
    19:00 +17°C° 0 mm 2 m/S 640 mmHg 62%
    20:00 +15°C° 0 mm 2 m/S 639 mmHg 66%
    21:00 +13°C° 0 mm 2 m/S 639 mmHg 69%
    22:00 +13°C° 0 mm 2 m/S 639 mmHg 66%
    23:00 +13°C° 0 mm 2 m/S 639 mmHg 64%
    Mehr zeigen